Regional Weather Roundup
Issued by NWS

Home | Current Version | Previous Version | Text Only | Print | Product List | Glossary On
Versions: 1 2 3 4 5 6 7 8 9 10 11 12 13 14 15 16 17 18 19 20 21 22 23 24 25 26 27 28 29 30 31 32 33 34 35 36 37 38 39 40 41 42 43 44 45 46 47 48 49 50
000
ASUS44 KLUB 262001
RWRTX
WEST TEXAS WEATHER ROUNDUP
NATIONAL WEATHER SERVICE LUBBOCK TX
300 PM CDT FRI MAY 26 2017

NOTE: "FAIR" INDICATES FEW OR NO CLOUDS BELOW 12,000 FEET WITH NO
SIGNIFICANT WEATHER AND/OR OBSTRUCTIONS TO VISIBILITY.

TXZ004-006>008-010-012-014-016-OKZ002-262100-
TEXAS PANHANDLE/OKLAHOMA PANHANDLE

CITY           SKY/WX    TMP DP  RH WIND       PRES   REMARKS
AMARILLO       SUNNY     83  50  31 SW6       29.91F
BORGER         SUNNY     83  51  33 S7        29.89F
CANADIAN       SUNNY     84  55  37 N5        29.84F
DALHART        SUNNY     80  48  32 VRB7      29.94F
DUMAS          SUNNY     79  50  35 S7        29.92F
GUYMON         SUNNY     81  52  36 CALM      29.87F
HEREFORD       SUNNY     86  42  21 W8        29.92F
PAMPA          SUNNY     84  51  31 CALM      29.90F
PERRYTON       SUNNY     83  51  32 NE6       29.87F
$$

TXZ026-029-035-045-048-262100-
SOUTHERN PANHANDLE/SOUTH PLAINS/ROLLING PLAINS

CITY           SKY/WX    TMP DP  RH WIND       PRES   REMARKS
CHILDRESS      SUNNY     89  59  36 VRB3      29.82F
SEMINOLE       SUNNY     93  28  10 W12G17    29.92F
LUBBOCK        PTSUNNY   93  26   9 MISG      29.89F
PLAINVIEW      SUNNY     85  36  17 NW6       29.89F
SNYDER         MOSUNNY   97  29   9 SW13G18   29.85F
$$

TXZ052-054-060>062-072-078-127-140-154-169-262100-
PERMIAN BASIN/CONCHO VALLEY/BIG COUNTRY/EDWARDS PLATEAU

CITY           SKY/WX    TMP DP  RH WIND       PRES   REMARKS
ABILENE        MOSUNNY   97  37  12 W3G16     29.82F
BIG SPRING     CLOUDY    97  26   8 W13G20    29.88F
BROWNWOOD      LGT RAIN  93  64  38 SW6       29.81F HX  95
JUNCTION       SUNNY     95  67  39 S8        29.85F HX  99
MIDLAND        SUNNY     98  22   6 W10G24    29.89F
ODESSA         SUNNY     96  22   7 SW10G16   29.91F
SAN ANGELO     CLOUDY   103  43  13 NW10      29.82F HX  98
SONORA         SUNNY     97  61  30 S9        29.89F HX  97
SWEETWATER     CLOUDY    96  32  10 W6        29.88S
WINK           SUNNY     98  21   6 SW22G30   29.88F
$$

TXZ055-058-074-075-080-082-262100-
FAR WEST/SOUTHWEST MOUNTAINS/TRANS PECOS

CITY           SKY/WX    TMP DP  RH WIND       PRES   REMARKS
ALPINE         SUNNY     91  28  10 NW8G22    30.09F
DRYDEN           N/A     97  62  31 SE8       29.86F HX  98
EL PASO        MOSUNNY   91  27  10 SW21G29   29.97F
FORT STOCKTON  SUNNY     97  34  11 W9        29.92F
GUADALUPE PASS SUNNY     86  25  11 SW38G51   30.06F
MARFA          SUNNY     87  31  13 W20       30.10F
PECOS          SUNNY     97  32  10 SW18G24   29.89F
PRESIDIO       FAIR      98  32  10 SW14      29.94F
$$

TXZ014-016-019-021>030-083-262100
TEXAS TECH WEST TEXAS MESONET/TEXAS PANHANDLE/NORTHERN SOUTH PLAINS

CITY           SKY/WX    TMP DP  RH WIND       PRES   REMARKS
ABERNATHY 5ENE   N/A     90  28  11 NW15      29.91F
AMARILLO 9NNE    N/A     83  52  33 E5        29.89F
AMARILLO 7SSE    N/A     83  50  31 SE5       29.92F
AMHERST 1NE      N/A     87  29  12 SW8       29.93S
BOOTLEG 11WNW    N/A     83  32  15 W5        29.96F
CANADIAN 6E      N/A     83  54  37 NE3       29.83F
CAPROCK CYN SP   N/A     87  55  33 SE5       29.86F
CHILDRESS 2NNE   N/A     88  59  37 NW3       29.81F
CLARENDON 2WSW   N/A     85  53  32 S5        29.87F
CLAUDE 12SW      N/A     85  47  26 SW2       29.90F
DIMMITT 2NE      N/A     84  38  19 W7        29.93F
FLOYDADA 2NNE    N/A     87  44  22 W7        29.89F
FRIONA 2NE       N/A     84  33  16 W2        29.93F
GOODLETT 3W      N/A     88  58  35 N6        29.79F
HART 3N          N/A     84  39  20 S5        29.92F
HEREFORD 2NW     N/A     85  39  19 N5        29.92F
MCLEAN 1E        N/A     84  51  30 E1        29.86F
MEMPHIS 1NE      N/A     87  56  33 E3        29.83S
MULESHOE 2SSW    N/A     85  32  14 SW7       29.93F
OLTON 6S         N/A     86  31  14 NW10G21   29.92F
PALO DURO SP     N/A     87  51  29 SE10      29.91F
PLAINVIEW 1S     N/A     86  40  19 NW6       29.90F
SILVERTON 7ESE   N/A     85  52  32 N3        29.89F
TULIA 2ENE       N/A     85  47  26 SW2       29.91F
TURKEY 2WSW      N/A     88  57  34 SW2       29.84F
UMBARGER 3NNE    N/A     83  49  31 SE2       29.93F
$$

TXZ033>036-039>041-045>048-262100
TEXAS TECH WEST TEXAS MESONET/SOUTH PLAINS

CITY           SKY/WX    TMP DP  RH WIND       PRES   REMARKS
AIKEN 3WSW       N/A     88  42  20 SW6       29.91F
ANDREWS 2NE      N/A     92  19   7 W16       29.92F
ANTON 6SSW       N/A     89  31  12 W9        29.91F
BROWNFIELD 2S    N/A     94  20   7 S12       29.90F
DENVR CTY 7WNW   N/A     90  18   7 SW3       29.92F
GAIL 2ESE        N/A     97  25   7 W9        29.85F
LAMESA 2SE       N/A     95  24   7 S14       29.89F
LEVELLAND 4S     N/A     91  21   8 W6        29.91F
LUBBOCK 3WNW     N/A     91  28  10 W7        29.90F
MORTON 1ENE      N/A     90  14   6 SW10G22   29.92F
ODONNELL 1N      N/A     94  17   6 W8        29.89F
PLAINS 3N        N/A     91  14   6 S12       29.93F
RALLS 1SE        N/A     89  32  12 NW15      29.89F
REESE CENTER     N/A     89  26  10 W16       29.91F
SEAGRAVES 1SW    N/A     93  20   7 S12       29.91F
SEMINOLE 2NNE    N/A     93  18   6 W10       29.91F
SLATON 2NE       N/A     92  27   9 W13       29.89F
SNYDER 3E        N/A     98  29   8 SW8       29.84F
SUNDOWN 8SW      N/A     91  18   7 SW8       29.92F
TAHOKA 3NNE      N/A     93  20   7 SW14      29.89F
WOLFFORTH 6SSW   N/A     92  19   7 SW6G16    29.90F
$$

TXZ031-032-036>038-042>044-262100-
TEXAS TECH WEST TEXAS MESONET/ROLLING PLAINS

CITY           SKY/WX    TMP DP  RH WIND       PRES   REMARKS
ASPERMONT 3NE    N/A     98  33  10 W9        29.79F
FLUVANNA 3WNW    N/A     96  21   7 SW13      29.86F
GRAHAM 5SSW      N/A     94  22   7 W7        29.87F
GUTHRIE 10WSW    N/A     94  37  13 SW7       29.80F
HASKELL 1NW      N/A     96  33  10 SW3       29.78F
JAYTON 1SSE      N/A     96  31  10 W12G22    29.82S
KNOX CITY 3NW    N/A     95  46  18 W6        29.79F
LK A HENRY 1NW   N/A     99  24   7 W13       29.83F
NORTHFIELD 1S    N/A     89  58  35 N2        29.82F
ODELL 4ENE       N/A     90  60  36 S2        29.78F
PADUCAH 10SW     N/A     90  52  27 SW3       29.81F
POST 1NE         N/A     95  24   7 W12       29.86F
RRING SPRGS 3N   N/A     89  53  29 N5        29.85F
SEYMOUR 3NW      N/A     89  56  32 W2        29.78F
SPUR 1W          N/A     93  24   8 NW15      29.82F
WEINERT 2NNE     N/A     95  48  20 SW3       29.79F
WHITE RVR 6NE    N/A     94  30  10 W13       29.85F
$$

TXZ052-054-060>062-072-078-127-140-154-169-262100-
TEXAS TECH WEST TEXAS MESONET/PERMIAN BASIN/
CONCHO VALLEY/BIG COUNTRY/EDWARDS PLATEAU

CITY           SKY/WX    TMP DP  RH WIND       PRES   REMARKS
COYANOSA 2N      N/A     95  31  10 NW10      29.90F
JUNCTION 1SSW    N/A     95  68  41 S9        29.86F HX 100
MERTZON 3NNE     N/A    101  38  11 W8        29.86F HX  96
SAN ANGELO 7NW   N/A    100  29   8 SW7       29.83F
STRLNG CT 4WSW   N/A     98  31   9 W6        29.87S
ST LAWRNCE 5SW   N/A     94  27   9 W7        29.88F
SWEETWATR 11SW   N/A     95  42  16 W3        29.88S
WALL 1E          N/A    101  44  14 N5        29.83F HX  96
$$

TXZ055-058-074-075-080-082-262100-
TEXAS TECH WEST TEXAS MESONET/FAR WEST/SOUTHWEST MOUNTAINS/TRANS PECOS

CITY           SKY/WX    TMP DP  RH WIND       PRES   REMARKS
PRSMN GAP BBNP   N/A     99  25   7 NW9       29.90F
GUADLPE MTN NP   N/A     82  24  11 SW22G32   30.09S
$$




USA.gov is the U.S. government's official web portal to all federal, state and local government web resources and services.